SHIJIAN-16 (SJ-16)

Last updated on Wed Nov 05 2025 00:02:15 GMT+0000 (Coordinated Universal Time)

1 39358U 13057A 25308.64692812 .00002397 00000+0 24001-3 0 9990 2 39358 74.9739 61.7169 0016112 53.4907 306.7762 14.91775224652857
UTC large
Height (km)
Speed (km/s)
/
Latitude / Longitude
Inclination (degrees)
Orbital Period (minutes)
Azimuth
Elevation
Range (km)
Doppler Factor

Next 0 passes for location: London (51.5072 / 0.1276)

Sorry there are no passes over London.